Temp
19 19 19 19 19 19 19 19 20 20 20 20 20 20 20 20 20 20 19 20 20 20 19 19 19 18 18 18 18 18 18 18 18 17 17 17 16 16 16 16 16 16 17
18 18 18 19 19 19 19 20 20 20 20 20 20 20 19 20 20 20 20 20 20 20 20 19 18 18 18 18 17 18 18 18 18 17 17 17 17 16 16 16 16 16 16
18 18 18 18 19 19 19 19 20 19 19 19 20 20 20 20 20 20 20 20 20 20 20 20 19 19 18 18 18 18 17 17 16 17 16 16 16 17 16 16 16 16 16
18 18 18 19 19 19 18 19 19 19 19 20 20 20 20 20 20 20 20 21 20 20 20 20 20 20 20 18 18 18 17 17 17 16 16 16 16 16 16 16 16 16 15
18 18 19 19 19 19 19 19 19 19 19 20 20 20 20 20 21 21 21 21 20 20 20 20 20 20 18 18 18 18 18 17 17 17 16 17 17 16 16 16 16 16 16
18 19 19 19 19 19 19 19 19 19 19 19 20 20 21 21 21 21 21 21 20 20 21 21 20 20 19 18 19 19 18 18 17 17 17 16 17 16 16 16 16 16 15
19 19 19 20 19 19 19 19 19 19 20 19 20 21 21 21 21 21 21 21 21 21 21 21 20 20 20 20 19 19 19 18 17 17 17 17 17 16 16 16 16 16 16
19 19 19 19 19 19 19 19 19 19 20 19 19 20 20 21 21 21 21 21 21 21 21 21 20 20 20 20 20 19 18 18 17 17 17 17 17 16 16 15 15 16 16
19 19 19 19 19 19 20 19 19 19 19 20 19 19 19 20 20 21 20 20 20 21 21 21 21 21 20 20 20 19 19 18 17 17 17 18 17 17 16 16 16 16 16
19 20 19 19 20 19 20 20 19 19 19 19 19 19 19 18 18 19 20 20 20 20 20 21 21 21 21 20 20 19 19 18 17 18 18 18 18 17 17 17 16 16 16
20 20 20 20 20 20 20 20 20 20 19 19 18 18 19 19 19 18 18 19 20 19 20 20 21 20 20 20 20 20 19 18 17 18 18 18 18 18 18 17 17 17 16
20 20 20 20 19 20 19 19 20 20 19 18 18 18 18 18 18 18 18 18 18 19 19 19 20 20 20 19 19 19 19 18 18 18 18 18 18 17 18 17 17 17 17
20 20 20 20 19 19 19 19 20 20 19 18 18 18 18 18 18 17 17 17 18 18 19 18 19 19 20 19 19 19 19 19 18 18 18 17 17 18 18 18 17 17 17
20 20 20 20 20 19 20 19 20 20 18 18 18 18 18 17 17 17 17 17 17 18 18 18 18 18 18 19 19 18 18 18 18 18 18 18 17 17 17 17 17 17 17
20 20 20 20 21 20 20 19 19 17 17 17 18 17 18 17 17 16 16 16 16 17 17 18 18 17 18 18 18 18 18 18 18 17 17 17 17 17 17 17 17 17 17
21 21 21 21 20 19 18 18 17 17 17 17 16 17 17 17 16 16 16 16 16 16 16 16 16 16 17 17 17 17 17 17 17 17 17 17 17 17 17 17 17 17 16
21 21 20 18 18 17 16 16 16 15 15 15 16 16 16 16 17 16 16 16 16 16 16 15 15 15 16 16 16 16 16 16 16 16 16 17 17 17 16 16 16 16 16
20 19 18 17 17 17 16 15 15 15 15 15 15 15 16 16 16 16 16 16 16 15 15 14 14 14 14 14 14 14 15 15 15 15 15 16 16 16 16 15 16 15 15
19 19 19 17 17 17 17 16 16 14 14 15 15 15 15 15 15 14 14 15 15 15 14 13 13 13 14 14 15 14 14 14 14 13 14 14 14 14 14 14 14 13 14
19 19 18 18 17 17 16 15 15 15 15 15 15 14 13 13 14 14 14 14 14 14 13 13 13 13 13 13 13 13 13 13 13 12 13 13 13 13 13 13 12 12 12
18 18 17 17 17 16 15 15 15 15 14 14 13 13 12 12 12 12 12 13 13 13 13 13 13 12 12 12 12 11 12 12 12 12 12 12 12 11 11 11 11 11 11
18 17 17 17 16 15 15 15 14 14 14 13 13 12 11 11 11 12 12 12 12 12 12 12 11 11 11 11 11 11 11 12 12 11 11 11 11 11 11 11 10 10 10
17 17 16 16 15 14 13 14 13 13 13 12 12 11 11 11 12 11 11 12 12 12 11 11 11 11 11 11 11 11 11 11 11 11 11 11 11 12 11 10 10 10 10
17 16 16 15 14 13 13 13 14 13 13 12 11 11 11 11 11 11 12 11 11 11 11 11 11 11 10 10 11 11 11 11 11 11 11 11 11 11 11 10 10 10 9
16 16 15 15 14 13 12 13 13 13 12 11 11 11 11 11 11 11 11 11 11 11 11 11 11 11 11 11 11 11 11 11 11 11 10 10 10 10 10 10 10 10 10
16 15 15 14 13 13 12 12 12 12 12 11 11 11 11 11 11 11 11 11 11 11 11 10 10 10 10 10 10 10 10 10 10 10 9 10 10 9 10 10 9 9 9
Height
1580 1581 1582 1582 1583 1584 1584 1585 1585 1585 1583 1582 1582 1581 1580 1578 1577 1576 1575 1574 1573 1572 1571 1571 1571 1572 1572 1572 1572 1572 1572 1572 1573 1574 1574 1576 1577 1580 1582 1583 1586 1589 1591
1581 1582 1583 1584 1584 1585 1586 1586 1586 1584 1583 1581 1580 1579 1577 1577 1575 1573 1572 1571 1570 1568 1568 1567 1567 1568 1566 1566 1566 1568 1568 1569 1570 1571 1572 1572 1573 1576 1578 1580 1582 1584 1587
1583 1584 1585 1586 1585 1585 1585 1585 1585 1583 1581 1579 1578 1577 1574 1573 1572 1570 1569 1568 1567 1565 1564 1562 1562 1562 1563 1565 1565 1564 1564 1563 1563 1567 1568 1567 1569 1571 1574 1575 1578 1581 1583
1585 1586 1586 1585 1584 1584 1583 1583 1583 1582 1580 1578 1575 1573 1571 1570 1569 1567 1566 1565 1564 1563 1562 1561 1560 1558 1559 1561 1562 1561 1559 1559 1559 1561 1558 1563 1565 1567 1569 1571 1574 1575 1579
1585 1585 1585 1585 1584 1584 1583 1582 1581 1580 1578 1575 1572 1571 1569 1568 1567 1565 1564 1562 1561 1560 1561 1560 1558 1558 1557 1558 1558 1557 1557 1556 1555 1558 1556 1559 1560 1562 1565 1566 1569 1572 1575
1584 1584 1584 1584 1584 1583 1582 1581 1579 1577 1575 1573 1571 1570 1568 1567 1566 1564 1563 1562 1561 1560 1560 1559 1559 1557 1555 1555 1555 1555 1553 1552 1552 1552 1553 1554 1556 1557 1560 1562 1564 1567 1570
1583 1584 1583 1583 1582 1581 1580 1579 1576 1575 1574 1572 1570 1569 1567 1567 1566 1564 1563 1561 1559 1558 1558 1558 1558 1557 1555 1554 1553 1552 1552 1550 1549 1549 1548 1550 1552 1554 1540 1556 1559 1561 1563
1583 1582 1582 1581 1580 1579 1578 1576 1575 1574 1572 1572 1570 1567 1566 1566 1564 1564 1563 1562 1560 1558 1556 1556 1555 1555 1554 1553 1552 1550 1549 1549 1548 1546 1540 1547 1548 1549 1550 1551 1550 1557 1559
1581 1580 1578 1577 1576 1575 1574 1574 1573 1573 1571 1571 1570 1569 1567 1565 1563 1563 1563 1561 1560 1558 1556 1554 1553 1553 1552 1550 1548 1548 1546 1546 1545 1543 1543 1546 1547 1547 1546 1547 1547 1552 1554
1577 1577 1576 1575 1573 1573 1572 1571 1571 1570 1569 1569 1568 1568 1567 1567 1565 1561 1560 1560 1559 1557 1555 1552 1551 1550 1549 1548 1548 1546 1545 1544 1543 1542 1542 1542 1543 1545 1544 1544 1544 1546 1549
1573 1572 1572 1572 1571 1571 1571 1570 1569 1568 1567 1566 1566 1565 1566 1566 1563 1561 1558 1557 1557 1555 1553 1551 1549 1548 1548 1548 1547 1546 1544 1543 1543 1542 1541 1542 1539 1540 1540 1540 1541 1541 1543
1572 1570 1570 1570 1570 1569 1569 1568 1566 1565 1565 1565 1565 1565 1565 1564 1562 1560 1558 1556 1555 1554 1553 1550 1547 1547 1547 1547 1546 1546 1544 1543 1542 1541 1541 1540 1539 1539 1537 1537 1537 1538 1539
1568 1567 1568 1569 1568 1567 1567 1565 1563 1563 1563 1563 1563 1563 1562 1561 1559 1558 1557 1555 1554 1553 1552 1550 1548 1547 1546 1546 1546 1545 1544 1543 1542 1541 1540 1539 1538 1537 1536 1535 1535 1535 1534
1566 1566 1566 1566 1566 1565 1564 1563 1562 1562 1561 1562 1561 1561 1560 1558 1557 1556 1555 1554 1553 1552 1551 1550 1549 1547 1546 1546 1545 1544 1543 1542 1541 1539 1538 1537 1536 1535 1533 1533 1533 1533 1532
1565 1565 1564 1564 1564 1563 1562 1561 1559 1560 1560 1560 1559 1558 1558 1557 1555 1554 1552 1552 1552 1552 1550 1549 1548 1547 1546 1545 1544 1543 1542 1540 1538 1537 1536 1534 1533 1532 1531 1531 1530 1529 1529
1564 1564 1563 1562 1562 1561 1560 1559 1559 1560 1559 1559 1558 1557 1556 1555 1554 1552 1551 1551 1550 1551 1550 1549 1547 1545 1545 1544 1542 1540 1538 1537 1536 1535 1533 1531 1530 1529 1528 1527 1527 1527 1527
1563 1562 1561 1561 1560 1559 1559 1559 1560 1560 1559 1558 1557 1556 1555 1554 1552 1551 1550 1549 1549 1548 1547 1547 1544 1544 1543 1541 1540 1538 1536 1535 1534 1533 1531 1529 1528 1527 1525 1524 1524 1525 1524
1562 1562 1561 1560 1560 1559 1559 1560 1560 1559 1558 1557 1557 1556 1554 1553 1551 1550 1549 1548 1546 1546 1545 1544 1543 1543 1542 1541 1539 1537 1535 1534 1532 1531 1529 1528 1527 1525 1523 1522 1520 1520 1520
1562 1561 1561 1561 1560 1560 1559 1560 1560 1559 1559 1559 1559 1557 1555 1555 1554 1553 1551 1549 1547 1546 1545 1543 1543 1544 1544 1543 1541 1539 1537 1533 1531 1529 1527 1527 1525 1523 1523 1521 1520 1519 1518
1561 1561 1561 1560 1560 1560 1561 1562 1562 1562 1562 1561 1560 1559 1558 1558 1557 1556 1554 1552 1551 1549 1547 1546 1546 1546 1545 1543 1542 1539 1536 1534 1532 1529 1527 1525 1523 1522 1521 1520 1519 1518 1516
1561 1562 1562 1562 1562 1563 1564 1564 1564 1564 1563 1562 1562 1562 1562 1562 1561 1560 1558 1556 1554 1552 1551 1549 1548 1547 1546 1544 1541 1539 1537 1535 1532 1531 1529 1528 1525 1523 1521 1519 1518 1516 1514
1562 1564 1564 1565 1565 1565 1565 1565 1565 1565 1565 1565 1565 1564 1564 1563 1562 1561 1559 1558 1557 1555 1553 1551 1549 1548 1547 1546 1544 1541 1538 1536 1534 1534 1531 1529 1527 1524 1522 1519 1517 1515 1513
1563 1564 1565 1566 1567 1568 1569 1568 1567 1567 1567 1566 1567 1567 1565 1563 1562 1561 1562 1561 1559 1557 1556 1555 1553 1551 1549 1547 1545 1543 1540 1538 1535 1533 1531 1529 1527 1524 1521 1519 1517 1516 1513
1564 1565 1566 1567 1568 1570 1571 1570 1569 1569 1569 1569 1570 1569 1568 1566 1565 1564 1563 1562 1561 1560 1559 1557 1555 1554 1552 1549 1547 1545 1542 1540 1537 1535 1533 1532 1530 1527 1523 1521 1518 1515 1513
1565 1565 1566 1567 1569 1571 1573 1573 1572 1571 1571 1571 1572 1572 1570 1569 1568 1566 1565 1564 1563 1561 1560 1557 1556 1553 1551 1548 1546 1545 1542 1540 1539 1537 1533 1530 1528 1526 1524 1522 1520 1517 1514
1565 1567 1567 1568 1570 1572 1575 1576 1576 1575 1574 1573 1573 1573 1572 1571 1570 1568 1567 1565 1562 1561 1559 1557 1556 1554 1552 1549 1547 1544 1542 1540 1537 1534 1532 1530 1528 1526 1524 1522 1520 1516 1512
Wind_Speed
13 11 9 8 6 4 4 5 4 6 8 8 9 11 15 16 16 17 17 14 14 15 13 13 13 15 15 16 16 16 15 17 18 19 21 22 24 23 24 23 21 20 21
11 8 5 4 3 2 4 5 6 9 10 12 14 15 17 16 18 18 20 18 15 15 17 16 18 17 17 19 19 18 16 17 18 19 19 20 22 25 25 25 23 23 23
8 7 3 1 1 2 3 3 8 14 15 15 16 18 18 18 17 15 17 16 13 13 16 17 17 24 22 19 19 19 17 18 19 19 20 21 21 22 25 25 24 23 24
10 7 4 3 3 3 3 7 10 12 13 18 19 16 14 15 14 15 15 12 13 11 15 23 25 19 24 18 20 21 22 21 23 22 25 24 23 23 24 25 24 24 24
8 9 8 6 6 7 9 10 11 14 16 16 16 13 15 12 10 13 13 11 9 8 15 11 9 10 16 21 24 20 25 20 26 24 22 19 22 24 25 25 26 24 25
8 11 9 12 12 11 10 11 13 14 14 17 15 14 11 8 3 6 4 5 8 9 9 10 9 8 9 12 15 16 21 24 23 24 23 23 20 22 24 25 26 25 27
10 13 14 14 14 16 14 13 15 15 12 12 16 14 4 4 5 10 5 9 6 7 10 10 11 11 9 10 15 15 17 16 21 24 25 19 23 23 30 27 25 26 29
11 11 14 15 14 14 13 11 14 16 12 13 16 17 10 13 5 10 4 6 8 8 8 11 14 14 16 15 15 17 19 19 21 21 24 22 23 23 22 24 27 24 27
11 14 13 12 10 11 9 8 12 13 14 11 13 13 8 6 21 4 4 6 10 10 9 10 11 12 17 14 13 16 18 17 17 18 15 17 20 21 22 24 19 23 24
15 10 9 10 9 9 11 11 10 11 13 14 14 15 11 14 12 13 14 14 13 11 10 10 11 9 11 7 6 13 12 13 10 9 9 12 15 19 20 20 20 24 27
4 4 8 11 10 11 12 14 13 11 11 12 13 14 12 10 9 7 18 19 13 13 13 10 8 8 10 8 8 10 8 8 10 6 7 10 12 14 17 18 18 22 26
5 6 9 11 14 10 9 14 14 12 11 12 13 14 11 8 10 9 14 16 14 15 8 7 5 6 7 7 7 7 8 7 8 9 11 11 13 16 17 18 20 20 23
7 9 9 11 3 10 13 10 12 12 9 10 12 10 9 10 12 11 11 12 13 13 3 6 9 9 7 5 5 6 8 9 9 10 11 12 13 13 15 16 18 19 19
8 7 11 12 15 17 7 14 13 8 9 9 10 11 10 11 13 11 11 13 13 9 5 1 6 10 8 6 7 8 9 13 16 14 13 13 12 12 13 15 16 17 18
9 9 8 11 11 11 14 13 11 10 9 10 10 10 11 12 12 11 11 11 9 7 7 6 8 9 9 8 8 11 13 13 15 16 16 17 16 13 14 15 15 16 17
9 9 11 14 14 12 11 9 7 8 8 9 6 7 8 9 8 8 8 8 8 8 6 8 10 11 10 10 10 12 13 14 15 16 17 15 15 15 17 16 16 14 14
11 13 14 9 7 6 2 2 3 3 3 4 4 6 5 6 7 8 8 8 7 7 7 4 9 7 7 7 8 9 9 10 14 14 14 14 13 13 16 18 17 19 19
9 10 8 7 5 3 1 2 3 2 1 3 3 4 6 7 6 5 6 5 5 4 2 1 4 3 4 4 4 4 6 13 13 12 14 15 15 14 14 13 15 17 16
9 7 6 4 3 2 3 3 2 3 4 7 7 8 10 10 10 11 12 13 14 12 10 8 7 7 8 8 8 9 9 9 11 12 13 15 15 15 14 13 13 11 10
4 3 3 3 4 4 2 6 9 9 7 8 9 11 12 13 15 16 15 17 16 15 15 14 13 11 9 10 8 10 10 10 7 9 13 13 13 14 14 14 14 14 14
6 7 7 7 8 9 8 7 8 7 9 9 10 11 12 13 14 16 16 17 17 17 17 17 17 16 16 17 17 16 13 12 9 11 11 12 12 12 12 12 13 13 12
11 10 9 8 9 9 11 10 7 7 8 8 9 10 11 12 13 15 17 18 18 19 19 19 20 20 19 20 20 20 18 16 16 14 12 9 12 13 14 14 12 12 14
11 10 9 8 11 12 11 11 9 8 8 9 11 11 12 15 15 15 16 18 18 19 18 18 19 20 19 18 17 18 22 19 14 14 14 12 15 16 14 12 11 12 16
11 10 10 10 10 11 11 13 12 11 12 14 16 16 17 18 18 13 9 10 14 14 13 13 14 14 13 15 17 17 17 15 14 14 15 16 18 21 17 15 18 18 17
11 10 10 10 9 10 10 11 11 14 19 20 18 16 13 11 11 10 12 11 9 13 12 11 11 11 10 9 11 13 13 16 17 16 13 12 15 15 10 11 15 16 18
10 10 10 10 10 11 10 9 11 13 15 17 16 12 9 9 11 10 12 12 12 13 14 14 13 10 9 9 11 15 15 15 14 14 11 13 12 13 9 12 16 14 17
Wind_Direction
160 160 171 173 182 199 219 217 252 273 292 304 302 293 289 293 299 302 303 286 279 279 273 268 274 275 274 265 261 262 261 257 252 246 243 240 236 228 221 220 221 219 218
164 168 181 194 217 235 304 278 282 298 303 303 299 300 293 288 291 292 294 287 280 277 256 261 261 264 256 261 260 258 260 264 258 250 250 245 239 233 225 226 222 219 221
193 179 173 62 21 273 312 324 312 301 307 311 306 307 296 293 290 299 296 298 292 266 257 262 280 262 258 262 266 255 256 259 258 251 250 246 244 239 231 230 227 223 222
197 197 195 221 245 275 270 301 311 320 303 296 303 307 311 300 281 290 297 300 313 294 281 290 279 277 257 263 263 254 252 254 250 247 242 228 237 240 237 235 231 227 222
207 217 224 241 255 282 269 284 308 312 318 317 312 304 313 310 296 293 297 297 308 319 300 314 297 292 271 254 267 269 256 272 253 252 263 238 229 237 238 235 233 230 222
230 222 237 251 264 283 294 297 316 316 323 322 324 320 321 309 3 348 336 334 304 295 302 314 293 306 310 286 269 278 276 267 258 255 252 238 240 239 239 237 235 231 227
240 237 243 266 274 280 285 303 315 311 318 322 325 321 305 304 308 2 358 4 347 299 290 297 295 300 294 289 278 283 279 278 268 262 253 250 245 245 238 234 237 236 235
238 250 260 268 276 282 290 307 310 311 317 330 327 331 327 317 276 316 350 7 2 349 313 289 299 298 301 285 287 292 290 281 280 280 270 250 254 255 263 242 235 238 240
246 252 253 261 265 272 281 306 315 310 311 317 320 323 319 311 323 296 328 339 342 324 309 303 284 293 304 290 295 298 302 299 293 292 280 262 257 258 260 262 243 235 237
249 246 262 264 266 271 284 290 294 300 311 316 320 311 308 304 307 306 305 315 320 330 332 318 306 305 326 311 305 320 317 299 308 285 277 269 260 254 258 260 257 244 239
260 279 261 264 274 278 290 297 292 292 300 308 307 301 305 305 312 291 313 318 318 332 346 344 330 306 308 313 346 355 342 326 304 297 285 277 277 267 263 258 259 253 248
262 273 282 284 307 292 287 299 297 281 294 311 305 306 303 303 302 300 304 321 335 348 14 31 11 341 309 304 338 3 5 5 353 332 314 302 292 283 273 266 261 258 254
273 278 292 298 287 342 268 296 309 273 286 301 296 294 295 298 308 309 311 322 331 341 346 9 13 0 341 293 297 322 325 338 333 326 317 303 293 285 283 279 267 262 259
275 295 297 308 265 306 280 287 299 302 308 311 305 308 308 306 311 304 306 312 319 317 323 161 6 2 354 321 315 314 318 323 318 318 316 309 288 278 278 278 282 277 266
292 280 315 309 306 301 302 303 313 329 312 309 311 307 299 301 306 306 305 301 303 301 307 290 327 328 324 314 305 305 306 308 318 315 312 309 301 290 284 282 277 272 270
293 301 308 301 288 289 291 311 317 297 307 302 304 299 301 303 304 311 316 310 296 295 301 308 316 320 322 303 290 282 287 298 311 318 320 305 293 289 282 279 280 277 283
288 296 294 297 296 305 302 276 266 338 3 13 345 331 327 326 323 313 303 296 287 286 292 303 298 318 312 287 281 291 306 314 324 330 330 319 316 310 286 281 277 278 278
281 282 282 284 289 301 304 281 293 317 312 329 7 28 47 44 44 37 21 10 350 323 311 17 5 3 353 353 339 301 310 312 322 331 328 328 333 339 342 327 311 298 277
275 277 271 266 274 279 264 280 308 38 71 87 83 71 67 60 62 57 52 48 45 42 34 56 57 27 8 354 339 343 336 333 332 329 327 326 327 329 332 335 334 329 321
241 201 168 159 149 127 107 75 80 81 79 81 75 74 74 66 63 59 57 55 52 53 56 60 61 49 34 23 8 3 6 0 347 351 351 345 339 338 337 337 335 332 327
145 137 131 125 113 114 105 82 76 73 71 72 76 78 72 63 61 59 55 59 56 55 54 54 53 49 44 37 32 25 23 27 18 13 9 11 12 13 11 2 353 354 358
146 140 132 124 126 113 93 83 77 80 87 86 84 77 77 70 63 62 67 66 65 62 59 56 54 47 43 43 36 28 14 10 14 7 9 9 9 357 354 356 359 1 3
146 144 136 130 125 109 88 76 87 101 107 102 95 90 81 69 71 84 77 75 76 70 64 60 54 54 52 41 32 32 32 30 25 18 13 18 18 6 351 350 350 343 343
156 154 140 130 123 114 88 79 87 102 106 105 102 99 94 84 82 76 75 78 66 61 60 49 42 39 32 23 19 15 9 11 11 16 16 10 9 6 11 19 19 13 4
165 159 149 142 134 126 108 83 91 103 104 105 105 102 98 93 83 66 58 63 52 42 38 24 13 1 356 354 354 351 359 2 359 359 353 350 350 358 16 21 10 1 360
174 172 169 159 150 149 127 99 121 121 115 112 109 104 93 75 61 49 41 37 37 24 4 356 356 352 345 346 344 344 340 340 339 344 340 336 333 345 344 344 353 356 352